, AK

(GMT )
Denali Park

Weather History for PAIN - August, 2019

Change the Weather History Date:

Monday, August 26, 2019

  Actual Average Record
Temperature  
Mean Temperature 50 °F -  
Max Temperature 57 °F 58 °F 71 °F (1987)
Min Temperature 43 °F 34 °F 22 °F (1969)
Degree Days  
Heating Degree Days 15    
Moisture  
Dew Point 44 °F    
Average Humidity 83    
Maximum Humidity 97    
Minimum Humidity 59    
Precipitation  
Precipitation 0.20 in - - ()
Sea Level Pressure  
Sea Level Pressure 30.08 in    
Wind  
Wind Speed 1 mph (WSW)    
Max Wind Speed 5 mph    
Max Gust Speed -    
Visibility 10 miles    
Events Rain    
Averages and records for this station are not official NWS values.
T = Trace of Precipitation, MM = Missing Value Source: NWS Daily Summary

Daily Weather History Graph

Daily Weather History Graph

Search for Another Location

Airport or City:

Astronomy

Aug. 26, 2019 Rise Set
Actual Time 6:22 AM AKDT 9:30 PM AKDT
Civil Twilight 5:26 AM AKDT 10:25 PM AKDT
Nautical Twilight 4:04 AM AKDT 11:45 PM AKDT
Astronomical Twilight 2:29 AM AKDT 1:24 AM AKDT
Moon 12:21 AM AKDT (8/26) 8:39 PM AKDT (8/26)
Length of Visible Light 16h 58m
Length of Day
15h 08m
Waning Crescent, 18% of the Moon is Illuminated
Aug 26
Waning Crescent
Aug 30
New
Sep 5
First Quarter
Sep 13
Full
Sep 21
Last Quarter

Hourly Weather History & Observations

Time (AKDT) Temp. Windchill Dew Point Humidity Pressure Visibility Wind Dir Wind Speed Gust Speed Precip Events Conditions
12:56 AM 46.9 °F - 45.0 °F 93% 30.05 in 8.0 mi WSW 3.5 mph - 0.07 in Rain Light Rain
1:56 AM 46.0 °F - 45.0 °F 96% 30.04 in 10.0 mi Calm Calm - 0.01 in   Overcast
2:56 AM 46.0 °F - 44.1 °F 93% 30.06 in 10.0 mi Calm Calm - 0.00 in Rain Light Rain
3:56 AM 45.0 °F - 44.1 °F 97% 30.06 in 10.0 mi Calm Calm - 0.00 in   Overcast
4:56 AM 43.0 °F 41.3 °F 42.1 °F 97% 30.07 in 10.0 mi SSW 3.5 mph - N/A   Overcast
5:56 AM 44.1 °F - 42.1 °F 93% 30.08 in 10.0 mi Calm Calm - N/A   Overcast
6:56 AM 43.0 °F - 42.1 °F 97% 30.09 in 10.0 mi Calm Calm - N/A   Overcast
7:56 AM 43.0 °F - 42.1 °F 97% 30.10 in 10.0 mi Calm Calm - 0.00 in   Mostly Cloudy
8:56 AM 45.0 °F - 44.1 °F 97% 30.11 in 10.0 mi Calm Calm - N/A   Overcast
9:56 AM 48.0 °F - 44.1 °F 86% 30.11 in 10.0 mi Calm Calm - 0.00 in   Mostly Cloudy
10:56 AM 51.1 °F - 45.0 °F 80% 30.10 in 10.0 mi Calm Calm - N/A   Clear
11:56 AM 54.0 °F - 45.0 °F 72% 30.09 in 10.0 mi Calm Calm - N/A   Partly Cloudy
12:56 PM 51.1 °F - 45.0 °F 80% 30.09 in 5.0 mi Calm Calm - 0.05 in Rain Rain
1:56 PM 54.0 °F - 45.0 °F 72% 30.10 in 10.0 mi Variable 4.6 mph - 0.06 in   Mostly Cloudy
2:56 PM 52.0 °F - 46.0 °F 80% 30.10 in 10.0 mi Calm Calm - 0.00 in   Overcast
3:56 PM 57.0 °F - 43.0 °F 59% 30.07 in 10.0 mi Calm Calm - N/A   Mostly Cloudy
4:56 PM 55.0 °F - 44.1 °F 67% 30.08 in 10.0 mi North 4.6 mph - 0.00 in Rain Light Rain
5:56 PM 55.0 °F - 46.0 °F 72% 30.07 in 10.0 mi Variable 3.5 mph - 0.01 in   Overcast
6:56 PM 55.9 °F - 45.0 °F 67% 30.06 in 10.0 mi Calm Calm - N/A   Scattered Clouds
7:56 PM 54.0 °F - 46.9 °F 77% 30.07 in 10.0 mi WSW 3.5 mph - N/A   Overcast
8:56 PM 52.0 °F - 42.1 °F 69% 30.07 in 10.0 mi Calm Calm - 0.00 in   Overcast
9:56 PM 48.9 °F - 44.1 °F 83% 30.08 in 10.0 mi Calm Calm - N/A   Mostly Cloudy
10:56 PM 48.0 °F - 43.0 °F 83% 30.08 in 10.0 mi Calm Calm - 0.00 in   Overcast
11:56 PM 46.0 °F - 43.0 °F 89% 30.09 in 10.0 mi Calm Calm - N/A   Overcast